QPF
0.00 0.00 0.00 0.00 0.00 0.00 0.00 0.00 0.00 0.00 0.00 0.00 0.00 0.00 0.00 0.00 0.00 0.00 0.01 0.00 0.00 0.01
0.00 0.00 0.00 0.00 0.00 0.00 0.00 0.00 0.00 0.00 0.00 0.00 0.02 0.03 0.04 0.04 0.02 0.01 0.02 0.02 0.01 0.01
0.00 0.00 0.00 0.00 0.00 0.00 0.00 0.01 0.02 0.03 0.05 0.07 0.09 0.09 0.09 0.08 0.05 0.04 0.04 0.03 0.02 0.02
0.00 0.00 0.00 0.00 0.01 0.02 0.05 0.08 0.10 0.10 0.07 0.06 0.07 0.07 0.07 0.07 0.07 0.08 0.07 0.06 0.04 0.01
0.00 0.00 0.00 0.02 0.04 0.05 0.05 0.05 0.04 0.02 0.02 0.01 0.01 0.01 0.01 0.01 0.02 0.03 0.03 0.03 0.03 0.04
0.00 0.00 0.01 0.03 0.05 0.03 0.02 0.01 0.01 0.01 0.01 0.01 0.01 0.01 0.01 0.01 0.01 0.02 0.02 0.01 0.02 0.03
0.00 0.01 0.03 0.05 0.03 0.01 0.01 0.01 0.01 0.01 0.01 0.01 0.01 0.01 0.01 0.01 0.02 0.02 0.03 0.02 0.02 0.03
0.00 0.03 0.05 0.04 0.01 0.00 0.00 0.01 0.01 0.01 0.02 0.03 0.03 0.02 0.01 0.01 0.01 0.01 0.03 0.04 0.03 0.03
0.01 0.03 0.04 0.01 0.00 0.00 0.01 0.01 0.01 0.02 0.02 0.03 0.05 0.06 0.04 0.02 0.01 0.01 0.02 0.04 0.05 0.06
0.02 0.04 0.03 0.01 0.00 0.00 0.01 0.00 0.01 0.01 0.01 0.01 0.02 0.04 0.06 0.02 0.01 0.02 0.02 0.02 0.04 0.07
0.04 0.04 0.01 0.00 0.00 0.00 0.01 0.01 0.02 0.01 0.01 0.01 0.01 0.01 0.02 0.02 0.02 0.02 0.02 0.02 0.03 0.03
0.06 0.03 0.00 0.00 0.00 0.00 0.01 0.01 0.02 0.01 0.01 0.01 0.03 0.01 0.01 0.01 0.02 0.02 0.02 0.02 0.03 0.03
0.04 0.01 0.00 0.00 0.01 0.00 0.01 0.02 0.01 0.01 0.02 0.02 0.04 0.01 0.01 0.01 0.01 0.03 0.03 0.03 0.02 0.01
0.03 0.00 0.01 0.00 0.00 0.00 0.00 0.01 0.01 0.01 0.01 0.02 0.02 0.01 0.01 0.01 0.01 0.02 0.02 0.02 0.02 0.01
MSLP
1017.83 1017.29 1016.76 1016.22 1015.86 1015.41 1014.91 1014.46 1014.27 1014.30 1014.32 1014.43 1014.54 1014.71 1014.98 1015.15 1015.39 1015.86 1016.43 1016.98 1017.64 1017.98
1017.27 1016.91 1016.44 1016.00 1015.68 1015.16 1014.77 1014.33 1014.06 1014.06 1014.07 1014.24 1014.39 1014.68 1015.00 1015.08 1015.18 1015.57 1016.27 1016.73 1017.17 1017.74
1016.92 1016.51 1016.19 1015.79 1015.36 1015.11 1014.84 1014.60 1014.51 1014.21 1014.07 1014.22 1014.29 1014.28 1014.36 1014.63 1014.91 1015.30 1015.88 1016.51 1016.64 1016.90
1016.64 1016.31 1015.93 1015.62 1015.75 1015.55 1015.27 1014.82 1014.35 1014.15 1013.86 1013.84 1013.70 1013.57 1013.73 1014.10 1014.55 1014.93 1015.36 1015.78 1016.19 1016.62
1016.29 1016.09 1015.85 1016.00 1015.62 1015.17 1014.70 1014.20 1013.77 1013.47 1013.17 1013.08 1013.05 1013.09 1013.28 1013.54 1013.87 1014.10 1014.46 1015.14 1015.71 1016.37
1016.21 1016.01 1016.12 1015.71 1015.18 1014.48 1014.05 1013.55 1013.01 1012.58 1012.40 1012.34 1012.24 1012.32 1012.44 1012.73 1013.15 1013.59 1013.98 1014.61 1015.46 1016.19
1016.17 1016.37 1016.00 1015.44 1014.66 1013.92 1013.38 1012.86 1012.33 1011.92 1011.64 1011.46 1011.45 1011.56 1011.76 1011.97 1012.42 1012.98 1013.52 1014.15 1014.86 1015.47
1016.59 1016.48 1015.85 1015.05 1014.17 1013.49 1012.90 1012.29 1011.72 1011.14 1010.72 1010.48 1010.50 1010.72 1011.11 1011.48 1011.93 1012.56 1013.30 1013.92 1014.62 1015.15
1017.00 1016.43 1015.69 1014.81 1014.00 1013.38 1012.81 1012.16 1011.45 1010.82 1010.33 1009.93 1009.80 1010.17 1010.74 1011.31 1011.87 1012.61 1013.34 1013.93 1014.43 1015.02
1017.19 1016.48 1015.80 1014.89 1014.29 1013.79 1013.10 1012.39 1011.71 1011.07 1010.60 1010.12 1009.99 1010.29 1010.93 1011.67 1012.34 1012.95 1013.65 1014.32 1014.74 1015.37
1017.50 1016.84 1016.09 1015.24 1014.81 1014.27 1013.61 1012.79 1012.20 1011.63 1011.30 1011.09 1010.98 1011.16 1011.68 1012.32 1012.97 1013.59 1014.26 1014.85 1015.37 1015.92
1018.10 1017.33 1016.61 1016.00 1015.44 1014.80 1014.10 1013.50 1012.77 1012.60 1012.46 1012.25 1012.31 1012.44 1012.68 1012.81 1013.42 1014.19 1014.75 1015.31 1015.69 1016.17
1018.62 1017.88 1017.27 1016.69 1016.02 1015.36 1014.63 1014.28 1013.52 1013.48 1013.48 1013.51 1013.47 1013.64 1013.67 1013.54 1013.85 1014.55 1015.30 1015.87 1016.38 1016.87
1019.15 1018.45 1017.84 1017.15 1016.53 1015.90 1015.26 1014.93 1014.46 1014.31 1014.39 1014.45 1014.57 1014.59 1014.70 1014.69 1014.76 1015.15 1015.61 1016.38 1017.02 1017.79
Thickness
5447 5445 5442 5439 5435 5431 5428 5427 5422 5417 5412 5407 5404 5402 5401 5403 5405 5404 5404 5405 5405 5409
5443 5438 5433 5428 5421 5417 5413 5410 5405 5398 5393 5387 5384 5381 5380 5383 5386 5388 5388 5391 5394 5397
5436 5430 5423 5416 5411 5404 5397 5390 5383 5378 5372 5367 5363 5362 5361 5362 5365 5368 5370 5374 5382 5390
5428 5420 5414 5408 5396 5387 5379 5372 5367 5360 5355 5349 5346 5346 5345 5343 5344 5347 5351 5357 5364 5373
5422 5415 5407 5395 5386 5378 5370 5362 5353 5345 5339 5333 5328 5324 5320 5320 5322 5328 5334 5339 5345 5353
5418 5410 5398 5389 5380 5371 5360 5352 5347 5342 5335 5328 5322 5315 5311 5309 5307 5307 5312 5320 5327 5334
5415 5402 5393 5383 5374 5364 5356 5351 5346 5339 5332 5323 5315 5307 5301 5301 5299 5297 5295 5300 5310 5323
5409 5397 5388 5377 5369 5362 5356 5351 5343 5336 5327 5316 5307 5300 5296 5294 5293 5291 5287 5285 5292 5308
5405 5393 5382 5374 5367 5361 5354 5346 5339 5331 5321 5308 5301 5295 5290 5287 5286 5285 5283 5280 5283 5295
5402 5391 5380 5372 5365 5356 5349 5342 5335 5327 5316 5302 5293 5288 5281 5277 5277 5280 5279 5278 5280 5287
5401 5389 5378 5371 5362 5354 5347 5341 5333 5325 5312 5299 5288 5279 5271 5268 5270 5274 5276 5278 5278 5286
5398 5388 5378 5370 5363 5355 5347 5340 5334 5322 5310 5298 5285 5274 5267 5267 5269 5272 5277 5282 5288 5295
5400 5390 5380 5372 5366 5358 5351 5342 5337 5326 5313 5299 5287 5273 5268 5268 5271 5275 5279 5285 5293 5302
5405 5395 5385 5378 5371 5364 5357 5348 5341 5330 5319 5307 5294 5282 5270 5268 5271 5280 5288 5296 5303 5310